Time,TemperatureF,DewpointF,PressureIn,WindDirection,WindDirectionDegrees,WindSpeedMPH,WindSpeedGustMPH,Humidity,HourlyPrecipIn,Conditions,Clouds,dailyrainin,SoftwareType,DateUTC
2013-07-09 00:02:00,77.0,59.0,29.80,ESE,118,3.0,-999.0,53,-99.99,,,-99.99,,2013-07-09 07:02:00,
2013-07-09 00:11:00,77.0,59.0,29.80,ESE,118,3.0,-999.0,53,-99.99,,,-99.99,,2013-07-09 07:11:00,
2013-07-09 00:22:00,76.0,62.0,29.79,SE,130,7.0,-999.0,62,-99.99,,,-99.99,,2013-07-09 07:22:00,
2013-07-09 00:33:00,73.0,62.0,29.79,SSE,162,10.0,-999.0,68,-99.99,,,-99.99,,2013-07-09 07:33:00,
2013-07-09 00:42:00,73.0,62.0,29.79,SSE,162,10.0,-999.0,68,-99.99,,,-99.99,,2013-07-09 07:42:00,
2013-07-09 00:53:00,74.0,61.0,29.78,South,180,5.0,-999.0,65,-99.99,,,-99.99,,2013-07-09 07:53:00,
2013-07-09 01:01:00,74.0,61.0,29.78,SSE,152,3.0,-999.0,64,-99.99,,,-99.99,,2013-07-09 08:01:00,
2013-07-09 01:11:00,74.0,61.0,29.78,SSE,152,3.0,-999.0,64,-99.99,,,-99.99,,2013-07-09 08:11:00,
2013-07-09 01:22:00,74.0,62.0,29.78,SSE,152,0.0,-999.0,66,-99.99,,,-99.99,,2013-07-09 08:22:00,
2013-07-09 01:33:00,74.0,62.0,29.77,SSE,152,0.0,-999.0,66,-99.99,,,-99.99,,2013-07-09 08:33:00,
2013-07-09 01:43:00,74.0,62.0,29.77,SSE,152,0.0,-999.0,66,-99.99,,,-99.99,,2013-07-09 08:43:00,
2013-07-09 01:52:00,74.0,64.0,29.76,SSE,152,0.0,-999.0,70,-99.99,,,-99.99,,2013-07-09 08:52:00,
2013-07-09 02:02:00,73.0,62.0,29.75,SW,233,0.0,-999.0,69,-99.99,,,-99.99,,2013-07-09 09:02:00,
2013-07-09 02:11:00,73.0,62.0,29.75,SW,233,0.0,-999.0,69,-99.99,,,-99.99,,2013-07-09 09:11:00,
2013-07-09 02:22:00,73.0,63.0,29.75,SW,233,0.0,-999.0,70,-99.99,,,-99.99,,2013-07-09 09:22:00,
2013-07-09 02:34:00,73.0,63.0,29.75,SW,233,0.0,-999.0,72,-99.99,,,-99.99,,2013-07-09 09:34:00,
2013-07-09 02:42:00,73.0,63.0,29.75,SW,233,0.0,-999.0,72,-99.99,,,-99.99,,2013-07-09 09:42:00,
2013-07-09 02:53:00,72.0,60.0,29.76,West,265,1.0,-999.0,66,-99.99,,,-99.99,,2013-07-09 09:53:00,
2013-07-09 03:01:00,73.0,62.0,29.76,WNW,300,0.0,-999.0,69,-99.99,,,-99.99,,2013-07-09 10:01:00,
2013-07-09 03:11:00,73.0,62.0,29.76,WNW,300,0.0,-999.0,69,-99.99,,,-99.99,,2013-07-09 10:11:00,
2013-07-09 03:22:00,72.0,64.0,29.75,WNW,286,1.0,-999.0,76,-99.99,,,-99.99,,2013-07-09 10:22:00,
2013-07-09 03:33:00,72.0,64.0,29.75,WNW,286,1.0,-999.0,76,-99.99,,,-99.99,,2013-07-09 10:33:00,
2013-07-09 03:42:00,72.0,64.0,29.75,WNW,286,1.0,-999.0,76,-99.99,,,-99.99,,2013-07-09 10:42:00,
2013-07-09 03:52:00,69.0,63.0,29.76,East,90,0.0,-999.0,82,-99.99,,,-99.99,,2013-07-09 10:52:00,
2013-07-09 04:01:00,68.0,63.0,29.77,ESE,111,2.0,-999.0,85,-99.99,,,-99.99,,2013-07-09 11:01:00,
2013-07-09 04:11:00,68.0,63.0,29.77,ESE,111,2.0,-999.0,85,-99.99,,,-99.99,,2013-07-09 11:11:00,
2013-07-09 04:22:00,67.0,63.0,29.78,ESE,111,0.0,-999.0,86,-99.99,,,-99.99,,2013-07-09 11:22:00,
2013-07-09 04:33:00,67.0,63.0,29.78,ESE,111,0.0,-999.0,87,-99.99,,,-99.99,,2013-07-09 11:33:00,
2013-07-09 04:42:00,67.0,63.0,29.78,ESE,111,0.0,-999.0,87,-99.99,,,-99.99,,2013-07-09 11:42:00,
2013-07-09 04:53:00,67.0,63.0,29.78,ESE,111,0.0,-999.0,88,-99.99,,,-99.99,,2013-07-09 11:53:00,
2013-07-09 05:01:00,67.0,63.0,29.78,ESE,111,0.0,-999.0,88,-99.99,,,-99.99,,2013-07-09 12:01:00,
2013-07-09 05:11:00,67.0,63.0,29.78,ESE,111,0.0,-999.0,88,-99.99,,,-99.99,,2013-07-09 12:11:00,
2013-07-09 05:22:00,67.0,64.0,29.78,ESE,111,0.0,-999.0,89,-99.99,,,-99.99,,2013-07-09 12:22:00,
2013-07-09 05:33:00,66.0,63.0,29.79,ESE,111,0.0,-999.0,89,-99.99,,,-99.99,,2013-07-09 12:33:00,
2013-07-09 05:43:00,66.0,63.0,29.79,ESE,111,0.0,-999.0,89,-99.99,,,-99.99,,2013-07-09 12:43:00,
2013-07-09 05:52:00,66.0,63.0,29.80,ESE,111,0.0,-999.0,90,-99.99,,,-99.99,,2013-07-09 12:52:00,
2013-07-09 06:11:00,66.0,63.0,29.79,WNW,292,3.0,-999.0,90,-99.99,,,-99.99,,2013-07-09 13:11:00,
2013-07-09 06:33:00,66.0,63.0,29.80,WNW,292,4.0,-999.0,90,-99.99,,,-99.99,,2013-07-09 13:33:00,
2013-07-09 06:43:00,67.0,64.0,29.81,WNW,292,4.0,-999.0,89,-99.99,,,-99.99,,2013-07-09 13:43:00,
2013-07-09 06:53:00,68.0,64.0,29.80,NW,305,1.0,-999.0,88,-99.99,,,-99.99,,2013-07-09 13:53:00,
2013-07-09 07:01:00,68.0,64.0,29.80,NW,305,1.0,-999.0,88,-99.99,,,-99.99,,2013-07-09 14:01:00,
2013-07-09 07:11:00,69.0,64.0,29.80,WNW,303,2.0,-999.0,84,-99.99,,,-99.99,,2013-07-09 14:11:00,
2013-07-09 07:22:00,70.0,64.0,29.80,WNW,296,1.0,-999.0,80,-99.99,,,-99.99,,2013-07-09 14:22:00,
2013-07-09 07:34:00,71.0,63.0,29.81,NW,306,0.0,-999.0,75,-99.99,,,-99.99,,2013-07-09 14:34:00,
2013-07-09 07:43:00,71.0,63.0,29.81,NW,306,0.0,-999.0,75,-99.99,,,-99.99,,2013-07-09 14:43:00,
2013-07-09 07:53:00,73.0,63.0,29.80,WNW,294,0.0,-999.0,72,-99.99,,,-99.99,,2013-07-09 14:53:00,
2013-07-09 08:01:00,73.0,62.0,29.80,WNW,293,1.0,-999.0,69,-99.99,,,-99.99,,2013-07-09 15:01:00,
2013-07-09 08:11:00,73.0,62.0,29.80,WNW,293,1.0,-999.0,69,-99.99,,,-99.99,,2013-07-09 15:11:00,
2013-07-09 08:22:00,74.0,61.0,29.81,WNW,293,0.0,-999.0,65,-99.99,,,-99.99,,2013-07-09 15:22:00,
2013-07-09 08:33:00,74.0,61.0,29.81,WNW,293,0.0,-999.0,65,-99.99,,,-99.99,,2013-07-09 15:33:00,
2013-07-09 08:43:00,76.0,61.0,29.81,North,360,1.0,-999.0,60,-99.99,,,-99.99,,2013-07-09 15:43:00,
2013-07-09 08:52:00,77.0,60.0,29.81,NNE,13,1.0,-999.0,56,-99.99,,,-99.99,,2013-07-09 15:52:00,
2013-07-09 09:11:00,79.0,60.0,29.81,NNE,24,1.0,-999.0,53,-99.99,,,-99.99,,2013-07-09 16:11:00,
2013-07-09 09:22:00,79.0,60.0,29.81,NNE,24,1.0,-999.0,53,-99.99,,,-99.99,,2013-07-09 16:22:00,
2013-07-09 09:33:00,79.0,60.0,29.81,NNE,24,1.0,-999.0,53,-99.99,,,-99.99,,2013-07-09 16:33:00,
2013-07-09 09:43:00,80.0,60.0,29.81,NNE,20,1.0,-999.0,51,-99.99,,,-99.99,,2013-07-09 16:43:00,
2013-07-09 09:53:00,81.0,61.0,29.82,NNE,21,1.0,-999.0,51,-99.99,,,-99.99,,2013-07-09 16:53:00,
2013-07-09 10:02:00,82.0,59.0,29.81,North,351,1.0,-999.0,46,-99.99,,,-99.99,,2013-07-09 17:02:00,
2013-07-09 10:11:00,82.0,59.0,29.81,North,351,1.0,-999.0,46,-99.99,,,-99.99,,2013-07-09 17:11:00,
2013-07-09 10:35:00,83.0,58.0,29.81,NW,315,0.0,-999.0,43,-99.99,,,-99.99,,2013-07-09 17:35:00,
2013-07-09 10:45:00,83.0,58.0,29.81,North,351,1.0,-999.0,42,-99.99,,,-99.99,,2013-07-09 17:45:00,
2013-07-09 10:53:00,84.0,58.0,29.81,NNE,22,0.0,-999.0,42,-99.99,,,-99.99,,2013-07-09 17:53:00,
2013-07-09 11:01:00,85.0,58.0,29.81,NE,38,1.0,-999.0,40,-99.99,,,-99.99,,2013-07-09 18:01:00,
2013-07-09 11:11:00,85.0,58.0,29.81,NE,38,1.0,-999.0,40,-99.99,,,-99.99,,2013-07-09 18:11:00,
2013-07-09 11:22:00,86.0,57.0,29.81,NNE,25,1.0,-999.0,37,-99.99,,,-99.99,,2013-07-09 18:22:00,
2013-07-09 11:42:00,86.0,59.0,29.81,North,360,2.0,-999.0,40,-99.99,,,-99.99,,2013-07-09 18:42:00,
2013-07-09 11:52:00,86.0,57.0,29.80,North,11,1.0,-999.0,38,-99.99,,,-99.99,,2013-07-09 18:52:00,
2013-07-09 12:01:00,87.0,60.0,29.80,North,360,2.0,-999.0,40,-99.99,,,-99.99,,2013-07-09 19:01:00,
2013-07-09 12:11:00,87.0,60.0,29.80,North,360,2.0,-999.0,40,-99.99,,,-99.99,,2013-07-09 19:11:00,
2013-07-09 12:22:00,86.0,60.0,29.80,WNW,293,2.0,-999.0,41,-99.99,,,-99.99,,2013-07-09 19:22:00,
2013-07-09 12:42:00,88.0,58.0,29.79,North,351,1.0,-999.0,36,-99.99,,,-99.99,,2013-07-09 19:42:00,
2013-07-09 12:52:00,89.0,58.0,29.78,NNW,327,2.0,-999.0,35,-99.99,,,-99.99,,2013-07-09 19:52:00,
2013-07-09 13:01:00,90.0,59.0,29.77,North,360,1.0,-999.0,36,-99.99,,,-99.99,,2013-07-09 20:01:00,
2013-07-09 13:11:00,90.0,59.0,29.77,North,360,1.0,-999.0,36,-99.99,,,-99.99,,2013-07-09 20:11:00,
2013-07-09 13:21:00,90.0,56.0,29.77,North,9,3.0,-999.0,32,-99.99,,,-99.99,,2013-07-09 20:21:00,
2013-07-09 13:32:00,89.0,58.0,29.77,NW,323,2.0,-999.0,35,-99.99,,,-99.99,,2013-07-09 20:32:00,
2013-07-09 13:42:00,89.0,58.0,29.77,NW,323,2.0,-999.0,35,-99.99,,,-99.99,,2013-07-09 20:42:00,
2013-07-09 13:52:00,90.0,53.0,29.76,North,10,1.0,-999.0,29,-99.99,,,-99.99,,2013-07-09 20:52:00,
2013-07-09 14:01:00,91.0,55.0,29.76,North,360,2.0,-999.0,30,-99.99,,,-99.99,,2013-07-09 21:01:00,
2013-07-09 14:11:00,91.0,55.0,29.76,North,360,2.0,-999.0,30,-99.99,,,-99.99,,2013-07-09 21:11:00,
2013-07-09 14:22:00,89.0,54.0,29.75,West,275,1.0,-999.0,31,-99.99,,,-99.99,,2013-07-09 21:22:00,
2013-07-09 14:32:00,89.0,54.0,29.74,ENE,74,2.0,-999.0,30,-99.99,,,-99.99,,2013-07-09 21:32:00,
2013-07-09 14:42:00,89.0,54.0,29.74,ENE,74,2.0,-999.0,30,-99.99,,,-99.99,,2013-07-09 21:42:00,
2013-07-09 14:52:00,88.0,54.0,29.74,NNE,19,1.0,-999.0,32,-99.99,,,-99.99,,2013-07-09 21:52:00,
2013-07-09 15:01:00,90.0,55.0,29.72,NNE,21,1.0,-999.0,31,-99.99,,,-99.99,,2013-07-09 22:01:00,
2013-07-09 15:11:00,90.0,55.0,29.72,NNE,21,1.0,-999.0,31,-99.99,,,-99.99,,2013-07-09 22:11:00,
2013-07-09 15:22:00,91.0,56.0,29.71,North,360,1.0,-999.0,31,-99.99,,,-99.99,,2013-07-09 22:22:00,
2013-07-09 15:33:00,91.0,55.0,29.71,NE,34,1.0,-999.0,30,-99.99,,,-99.99,,2013-07-09 22:33:00,
2013-07-09 15:42:00,91.0,55.0,29.71,NE,34,1.0,-999.0,30,-99.99,,,-99.99,,2013-07-09 22:42:00,
2013-07-09 15:53:00,90.0,53.0,29.70,NNE,30,0.0,-999.0,29,-99.99,,,-99.99,,2013-07-09 22:53:00,
2013-07-09 16:01:00,92.0,57.0,29.69,NW,306,2.0,-999.0,31,-99.99,,,-99.99,,2013-07-09 23:01:00,
2013-07-09 16:11:00,92.0,57.0,29.69,NW,306,2.0,-999.0,31,-99.99,,,-99.99,,2013-07-09 23:11:00,
2013-07-09 16:22:00,92.0,54.0,29.67,NNE,29,2.0,-999.0,28,-99.99,,,-99.99,,2013-07-09 23:22:00,
2013-07-09 16:33:00,92.0,54.0,29.67,NNE,29,2.0,-999.0,28,-99.99,,,-99.99,,2013-07-09 23:33:00,
2013-07-09 16:43:00,92.0,55.0,29.67,NNE,23,2.0,-999.0,29,-99.99,,,-99.99,,2013-07-09 23:43:00,
2013-07-09 16:53:00,91.0,54.0,29.67,NW,317,3.0,-999.0,29,-99.99,,,-99.99,,2013-07-09 23:53:00,
2013-07-09 17:01:00,90.0,55.0,29.67,NE,35,3.0,-999.0,31,-99.99,,,-99.99,,2013-07-10 00:01:00,
2013-07-09 17:11:00,90.0,55.0,29.67,NE,35,3.0,-999.0,31,-99.99,,,-99.99,,2013-07-10 00:11:00,
2013-07-09 17:22:00,89.0,60.0,29.66,West,271,5.0,-999.0,38,-99.99,,,-99.99,,2013-07-10 00:22:00,
2013-07-09 17:33:00,89.0,60.0,29.66,West,271,5.0,-999.0,38,-99.99,,,-99.99,,2013-07-10 00:33:00,
2013-07-09 17:42:00,87.0,60.0,29.65,NW,312,8.0,-999.0,40,-99.99,,,-99.99,,2013-07-10 00:42:00,
2013-07-09 17:52:00,85.0,59.0,29.65,West,281,9.0,-999.0,42,-99.99,,,-99.99,,2013-07-10 00:52:00,
2013-07-09 18:11:00,82.0,63.0,29.68,NE,54,6.0,-999.0,52,-99.99,,,-99.99,,2013-07-10 01:11:00,
2013-07-09 18:32:00,72.0,62.0,29.69,South,183,9.0,-999.0,72,-99.99,,,-99.99,,2013-07-10 01:32:00,
2013-07-09 18:43:00,72.0,62.0,29.69,South,183,9.0,-999.0,72,-99.99,,,-99.99,,2013-07-10 01:43:00,
2013-07-09 19:01:00,70.0,64.0,29.70,South,177,7.0,-999.0,81,-99.99,,,-99.99,,2013-07-10 02:01:00,
2013-07-09 19:11:00,70.0,64.0,29.70,South,177,7.0,-999.0,81,-99.99,,,-99.99,,2013-07-10 02:11:00,
2013-07-09 19:33:00,67.0,63.0,29.72,WSW,257,7.0,-999.0,86,-99.99,,,-99.99,,2013-07-10 02:33:00,
2013-07-09 19:42:00,67.0,63.0,29.72,WSW,257,7.0,-999.0,86,-99.99,,,-99.99,,2013-07-10 02:42:00,
2013-07-09 19:53:00,68.0,64.0,29.70,WNW,289,10.0,-999.0,88,-99.99,,,-99.99,,2013-07-10 02:53:00,
2013-07-09 20:01:00,68.0,64.0,29.67,WNW,296,10.0,-999.0,87,-99.99,,,-99.99,,2013-07-10 03:01:00,
2013-07-09 20:11:00,68.0,64.0,29.67,WNW,296,10.0,-999.0,87,-99.99,,,-99.99,,2013-07-10 03:11:00,
2013-07-09 20:22:00,69.0,63.0,29.69,WNW,288,8.0,-999.0,80,-99.99,,,-99.99,,2013-07-10 03:22:00,
2013-07-09 20:32:00,71.0,63.0,29.70,WNW,290,6.0,-999.0,76,-99.99,,,-99.99,,2013-07-10 03:32:00,
2013-07-09 20:43:00,71.0,63.0,29.70,WNW,290,6.0,-999.0,76,-99.99,,,-99.99,,2013-07-10 03:43:00,
2013-07-09 20:52:00,73.0,64.0,29.73,NNW,336,5.0,-999.0,73,-99.99,,,-99.99,,2013-07-10 03:52:00,
2013-07-09 21:01:00,70.0,63.0,29.76,SSE,156,10.0,-999.0,79,-99.99,,,-99.99,,2013-07-10 04:01:00,
2013-07-09 21:11:00,70.0,63.0,29.76,SSE,156,10.0,-999.0,79,-99.99,,,-99.99,,2013-07-10 04:11:00,
2013-07-09 21:22:00,70.0,63.0,29.76,SSE,156,10.0,-999.0,79,-99.99,,,-99.99,,2013-07-10 04:22:00,
2013-07-09 21:32:00,69.0,63.0,29.72,SW,224,7.0,-999.0,80,-99.99,,,-99.99,,2013-07-10 04:32:00,
2013-07-09 21:42:00,69.0,63.0,29.72,SW,224,7.0,-999.0,80,-99.99,,,-99.99,,2013-07-10 04:42:00,
2013-07-09 21:52:00,70.0,64.0,29.74,WSW,250,2.0,-999.0,81,-99.99,,,-99.99,,2013-07-10 04:52:00,
2013-07-09 22:02:00,71.0,65.0,29.78,NE,36,1.0,-999.0,82,-99.99,,,-99.99,,2013-07-10 05:02:00,
2013-07-09 22:11:00,71.0,65.0,29.78,NE,36,1.0,-999.0,82,-99.99,,,-99.99,,2013-07-10 05:11:00,
2013-07-09 22:32:00,62.0,60.0,29.83,South,178,4.0,-999.0,92,-99.99,,,-99.99,,2013-07-10 05:32:00,
2013-07-09 22:42:00,62.0,60.0,29.83,South,178,4.0,-999.0,92,-99.99,,,-99.99,,2013-07-10 05:42:00,
2013-07-09 22:52:00,62.0,60.0,29.83,SW,232,6.0,-999.0,92,-99.99,,,-99.99,,2013-07-10 05:52:00,
2013-07-09 23:01:00,62.0,60.0,29.85,SW,228,3.0,-999.0,93,-99.99,,,-99.99,,2013-07-10 06:01:00,
2013-07-09 23:11:00,62.0,60.0,29.85,SW,228,3.0,-999.0,93,-99.99,,,-99.99,,2013-07-10 06:11:00,
2013-07-09 23:21:00,63.0,61.0,29.85,South,186,3.0,-999.0,93,-99.99,,,-99.99,,2013-07-10 06:21:00,
2013-07-09 23:32:00,63.0,61.0,29.78,South,181,6.0,-999.0,92,-99.99,,,-99.99,,2013-07-10 06:32:00,
2013-07-09 23:42:00,63.0,61.0,29.78,South,181,6.0,-999.0,92,-99.99,,,-99.99,,2013-07-10 06:42:00,
2013-07-09 23:52:00,62.0,59.0,29.78,WNW,285,7.0,-999.0,90,-99.99,,,-99.99,,2013-07-10 06:52:00,